Location: Le Louroux
(47.1611°N, 0.7863°E)
Time: 00:22:18
(UTC+00:00)

Daily predictions for brighter satellites

Satellite Brightness Start Highest point End
(mag) Time Altitude Azimuth Time Altitude Azimuth Time Altitude Azimuth
SL-16 R/B 4.4 03:46:48 18° NNE 03:47:50 19° NE 03:51:43 10° E
Cosmos 2082 Rocket 3.8 03:49:32 28° ESE 03:50:31 30° ESE 03:55:19 10° NE
COSMOS 2455 3.7 03:58:09 44° ENE 03:58:09 44° ENE 04:03:31 10° ESE
ATLAS 3B R/B 4.5 03:59:03 23° N 03:59:11 23° N 04:05:13 10° NE
Cosmos 1980 Rocket 3.3 04:14:14 37° SSE 04:14:14 37° SSE 04:17:28 10° SSE
Cosmos 2098 Rocket 4.4 04:15:58 50° SE 04:15:58 50° SE 04:20:18 10° SSE
Cosmos 2369 4.2 04:16:15 54° ENE 04:16:16 54° ENE 04:21:49 10° SE
Aureole 1 Rocket 4.4 04:20:44 45° N 04:23:06 72° ENE 04:30:34 10° SSE
Cosmos 372 Rocket 4.2 04:33:38 64° E 04:33:38 64° E 04:38:15 10° SSE
Cosmos 2333 Rocket 3.9 04:33:56 18° N 04:37:05 29° NE 04:42:02 10° ESE
Cosmos 1606 Rocket 4.2 04:43:11 51° NE 04:43:35 54° ENE 04:47:54 10° SSE
Cosmos 2360 Rocket 4.1 04:40:11 13° N 04:43:43 23° NE 04:48:08 10° E
Cosmos 2142 Rocket 4.3 04:47:06 47° NNW 04:49:01 75° W 04:55:12 10° S
Helios 1A Rocket 3.9 04:52:43 10° SE 04:55:46 34° ENE 04:55:46 34° ENE
USA 234 4.0 04:50:16 10° ENE 04:56:12 38° N 04:57:47 33° NNW
SeaSat 1 4.5 04:57:16 10° N 04:58:19 15° N 04:58:19 15° N
SL-4 R/B 3.4 05:03:15 24° NE 05:03:15 24° NE 05:04:55 10° ENE
Cosmos 2219 Rocket 4.3 04:58:16 10° N 05:02:29 21° NE 05:06:39 10° E
Cosmos 2322 Rocket 3.6 05:01:43 14° N 05:06:00 34° NE 05:11:09 10° ESE
Cosmos 1726 Rocket 3.6 05:08:07 32° N 05:10:04 74° E 05:14:17 10° SSE
Meteor 2-3 Rocket 4.1 05:04:47 10° S 05:10:26 64° E 05:16:05 10° NNE
Cosmos 489 Rocket 4.5 05:08:05 10° SSW 05:14:24 85° ESE 05:20:42 10° NNE
Nadezhda 4 Rocket 3.9 05:09:08 10° SSW 05:15:26 78° W 05:21:45 10° N
CZ-4 R/B 3.7 05:11:13 10° NNE 05:15:54 83° ESE 05:20:30 10° SSW
Cosmos 1428 Rocket 4.4 05:10:20 10° S 05:16:33 90° W 05:22:52 10° N
NOSS 2-1 (D) 3.3 05:17:47 61° SW 05:17:47 61° SW 05:22:18 10° SSE
Cosmos 2237 4.1 05:15:45 35° NW 05:18:15 77° WSW 05:23:55 10° SSE
USA 59 Rocket 0.0 05:20:26 53° SW 05:20:26 53° SW 05:25:02 10° SSE
Cosmos 841 Rocket 3.4 05:17:09 10° SSW 05:22:23 81° WNW 05:27:41 10° NNE
COSMOS 2406 3.2 05:17:14 10° SSW 05:22:54 82° ESE 05:28:36 10° NNE
NOSS 2-1 (E) 3.2 05:25:12 62° W 05:25:32 66° SW 05:30:09 10° SSE
Cosmos 1933 4.4 05:27:10 28° SSW 05:27:10 28° SSW 05:29:12 10° SSW
NOSS 3-1 (C) 4.0 05:21:26 28° NW 05:25:45 78° SW 05:34:38 10° SSE
Cosmos 1833 Rocket 4.4 05:28:01 16° NNW 05:28:01 16° NNW 05:30:17 10° N
Cosmos 1892 Rocket 3.5 05:25:04 10° S 05:29:25 83° E 05:33:50 10° N
Cosmos 2195 Rocket 4.5 05:23:37 10° S 05:29:52 89° W 05:36:14 10° N
SL-16 R/B 2.2 05:28:40 19° NNW 05:32:50 81° ENE 05:38:30 10° SSE
Cosmos 2082 Rocket 2.3 05:31:29 26° WSW 05:34:21 48° NW 05:39:48 10° NNE
IRS-1D 3.5 05:38:11 10° N 05:43:02 52° WNW 05:47:55 10° SW
COSMOS 2455 3.3 05:41:19 28° WNW 05:43:39 40° WSW 05:49:11 10° S
Cosmos 1898 Rocket 4.0 05:42:42 30° WNW 05:44:21 38° WSW 05:49:10 10° S
NOSS 2-1 (C) 3.9 05:44:49 34° W 05:45:32 37° SW 05:49:55 10° SSE
Meteor 2-20 4.3 05:39:47 10° NNW 05:45:54 76° W 05:51:57 10° S
Cosmos 405 Rocket 4.4 05:45:17 10° SSE 05:48:09 29° E 05:51:03 10° NNE
Orbus 7S? 3.8 05:47:32 26° N 05:48:15 30° NNE 05:50:43 10° E
ATLAS 3B R/B 4.2 05:46:18 12° NNW 05:52:34 32° NNE 05:59:17 10° E
Cosmos-2242 2.8 05:50:11 10° N 05:54:26 85° W 05:58:38 10° S
Cosmos 1980 Rocket 3.8 05:56:02 16° WSW 05:56:02 16° WSW 05:58:23 10° SW
Cosmos 2278 3.6 05:51:02 14° NNW 05:55:57 79° WSW 06:01:35 10° SSE
COSMO-SKYMED 1 2.9 05:52:53 10° SSW 05:56:45 40° W 05:59:10 20° NW
SKYMED 2 4.5 05:56:17 10° SSW 05:59:59 27° W 06:01:14 24° WNW
Tiangong 0.3 05:59:42 12° SW 06:00:49 14° SSW 06:02:33 10° S
Cosmos 2058 Rocket 3.0 05:57:11 10° NNW 06:01:36 67° W 06:05:57 10° S
Cosmos 1484 Rocket 2.3 05:58:15 10° N 06:01:41 74° WNW 06:05:02 10° SSW
Cosmos 1627 Rocket 4.4 05:56:22 10° SSW 06:02:25 65° WNW 06:08:32 10° N
Meteor 2-2 Rocket 4.2 05:59:13 10° NNW 06:04:52 71° W 06:10:36 10° S
Okean 1 2.9 06:03:47 10° NNW 06:07:20 68° W 06:10:52 10° S
Meteor 2-20 Rocket 4.2 06:02:19 10° NNW 06:08:05 71° W 06:13:45 10° S
Cosmos 1937 Rocket 4.2 06:06:02 19° NW 06:08:52 31° W 06:13:20 10° SSW
ARIANE 5 R/B 3.8 06:08:48 10° NNE 06:13:49 45° E 06:18:47 10° S
Cosmos 2285 Rocket 4.1 06:07:34 10° NNW 06:14:00 81° ENE 06:20:25 10° SSE
ATLAS 2AS CENTAUR R/B 4.4 06:08:01 10° S 06:14:24 38° ESE 06:20:38 10° NE
IRIDIUM 104 4.3 06:12:32 10° S 06:17:46 88° W 06:23:01 10° N
Cosmos 2333 Rocket 2.4 06:16:05 10° NW 06:21:45 59° WSW 06:27:22 10° S
SAR-Lupe-4 4.5 06:20:34 10° NNE 06:24:03 52° E 06:27:31 10° S
SMAP 3.2 06:20:23 10° NNE 06:25:04 80° ESE 06:29:44 10° S
IRIDIUM 114 4.3 06:21:42 10° S 06:26:54 74° W 06:32:09 10° N
Cosmos 2360 Rocket 2.2 06:22:40 10° NNW 06:28:19 75° WSW 06:33:54 10° SSE
Helios 1A Rocket 4.1 06:26:25 10° SW 06:28:30 15° W 06:29:20 14° WNW
Landsat 7 4.0 06:26:20 10° NNE 06:31:02 74° ESE 06:35:39 10° S
Cosmos 2026 Rocket 4.4 06:26:29 10° SW 06:32:04 38° WNW 06:37:43 10° N
NOSS 3-1 (A) 4.2 06:25:09 10° NW 06:32:20 66° SW 06:41:11 10° SSE
Cosmos 1814 Rocket 4.0 06:28:21 10° SSW 06:33:35 78° WNW 06:38:54 10° NNE
CBERS-1 4.0 06:28:43 10° N 06:33:44 60° WNW 06:38:43 10° SSW
IGS 5A 3.7 06:30:46 10° N 06:34:33 41° WNW 06:38:18 10° SW
BREEZE-M DEB (TANK) 1.8 06:34:37 15° W 06:35:58 60° SSW 06:38:34 10° ESE
IRIDIUM 103 4.4 06:30:57 10° SSW 06:36:06 61° W 06:41:17 10° N
Cosmos 2237 Rocket 4.3 06:32:48 10° N 06:36:37 18° NE 06:40:26 10° E
USA 234 3.8 06:32:11 10° E 06:38:26 49° NNE 06:44:41 10° NW
SL-4 R/B 1.5 06:36:58 12° WNW 06:39:50 65° NNE 06:42:59 10° ESE
Cosmos 1758 Rocket 3.5 06:35:35 10° SSW 06:39:58 66° W 06:44:23 10° N
Cosmos 1733 2.1 06:39:11 10° SW 06:40:51 29° WNW 06:42:33 10° NNW
Cosmos 1743 2.2 06:37:51 10° SSW 06:41:04 79° W 06:44:20 10° N
IRS-1C 4.4 06:37:41 10° NNE 06:43:02 76° ESE 06:48:21 10° S
Meteor 2-6 Rocket 4.4 06:39:16 10° NNW 06:45:09 60° W 06:50:58 10° S
BREEZE-M DEB (TANK) 3.1 06:42:49 10° W 06:45:34 68° N 06:53:06 10° E
Thor Agena Rocket 3.5 06:41:13 10° N 06:46:15 66° WNW 06:51:13 10° SSW
Cosmos 2219 Rocket 2.2 06:41:29 10° NNW 06:47:11 87° WSW 06:52:49 10° SSE
Cosmos 192 4.4 06:42:35 10° NNW 06:47:32 83° ENE 06:52:26 10° SSE
Cosmos 2322 Rocket 2.6 06:44:46 10° NW 06:50:11 46° WSW 06:55:33 10° S
S3M 4.1 06:44:46 10° N 06:51:01 86° E 06:57:09 10° S
Cosmos 1553 Rocket 4.4 06:47:31 10° NNW 06:53:34 47° W 06:59:38 10° SSW
SJ-12 3.7 06:54:36 10° N 06:58:22 61° WNW 07:02:08 10° SSW
Resurs 01 Rocket 4.4 06:57:03 10° NE 07:00:14 19° E 07:03:23 10° SE
YAOGAN 1 4.0 06:57:15 10° NNE 07:01:21 43° E 07:05:24 10° S
